Location: Lafig�re
(44.4503°N, 4.0357°E)
Time: 15:37:41
(UTC+00:00)

Transit 2A Rocket - Pass Details

Date: 22 January 2021
Orbit: 594 x 908 km, 66.7° (Epoch: 06 March)

Event Time Altitude Azimuth Distance (km) Brightness Sun altitude
Rises 21:01:53 0° 327° (NNW) 2,920 - -46.2°
Reaches altitude 10° 21:04:12 10° 327° (NNW) 1,980 - -46.6°
Maximum altitude 21:08:37 88° 244° (WSW) 604 - -47.4°
Drops below altitude 10° 21:12:54 10° 150° (SSE) 1,922 - -48.1°
Sets 21:15:08 0° 150° (SSE) 2,826 - -48.4°
